Location: Unspecified
(48.7670°N, 0.0000°E)
Time: 14:03:02
(UTC+00:00)

A-11 Canister half - Pass Details

Date: 01 July 2019
Orbit: 1526 x 1683 km, 47.3° (Epoch: 19 August)

Event Time Altitude Azimuth Distance (km) Brightness Sun altitude
Exits shadow 23:20:19 12° 129° (SE) 3,673 10.5 -17.5°
Maximum altitude 23:21:17 12° 123° (ESE) 3,652 10.6 -17.5°
Drops below altitude 10° 23:24:13 10° 105° (ESE) 3,776 10.8 -17.6°
Sets 23:30:08 0° 76° (ENE) 4,731 11.6 -17.8°
